Fort Madison, IA

7:28 PM CDT on April 23, 2018 (GMT -0500)
Fort Madison Municipal

Weather History for KFSW - March, 2014

Change the Weather History Date:

Friday, March 28, 2014

  Actual Average Record
Temperature  
Mean Temperature 38 °F -  
Max Temperature 42 °F 56 °F 75 °F (1963)
Min Temperature 35 °F 37 °F 14 °F (1955)
Degree Days  
Heating Degree Days 26    
Moisture  
Dew Point 35 °F    
Average Humidity 87    
Maximum Humidity 93    
Minimum Humidity 81    
Precipitation  
Precipitation 0.00 in - - ()
Sea Level Pressure  
Sea Level Pressure 30.00 in    
Wind  
Wind Speed 12 mph (NW)    
Max Wind Speed 22 mph    
Max Gust Speed 32 mph    
Visibility 10 miles    
Events      
Averages and records for this station are not official NWS values.
T = Trace of Precipitation, MM = Missing Value Source: NWS Daily Summary

Daily Weather History Graph

Daily Weather History Graph

Search for Another Location

Airport or City:

Astronomy

Mar. 28, 2014 Rise Set
Actual Time 6:55 AM CDT 7:25 PM CDT
Civil Twilight 6:28 AM CDT 7:53 PM CDT
Nautical Twilight 5:55 AM CDT 8:25 PM CDT
Astronomical Twilight 5:22 AM CDT 8:59 PM CDT
Moon 5:27 AM CDT (3/28) 5:22 PM CDT (3/28)
Length of Visible Light 13h 25m
Length of Day
12h 30m
Waning Crescent, 6% of the Moon is Illuminated
Mar 28
Waning Crescent
Mar 30
New
Apr 7
First Quarter
Apr 15
Full
Apr 22
Last Quarter

Hourly Weather History & Observations

Time (CDT) Temp. Windchill Dew Point Humidity Pressure Visibility Wind Dir Wind Speed Gust Speed Precip Events Conditions
12:15 AM 42.8 °F 34.0 °F 39.2 °F 87% 29.62 in 10.0 mi West 20.7 mph 32.2 mph N/A   Overcast
12:35 AM 42.8 °F 34.8 °F 39.2 °F 87% 29.64 in 10.0 mi West 17.3 mph 27.6 mph N/A   Overcast
12:55 AM 41.0 °F 31.9 °F 37.4 °F 87% 29.65 in 10.0 mi West 19.6 mph 28.8 mph N/A   Overcast
1:15 AM 39.2 °F 30.5 °F 37.4 °F 93% 29.67 in 7.0 mi West 16.1 mph 31.1 mph N/A   Overcast
1:35 AM 39.2 °F 29.8 °F 37.4 °F 93% 29.68 in 10.0 mi West 18.4 mph 25.3 mph N/A   Overcast
1:55 AM 39.2 °F 29.6 °F 37.4 °F 93% 29.70 in 10.0 mi West 19.6 mph 26.5 mph N/A   Overcast
2:15 AM 39.2 °F 29.6 °F 37.4 °F 93% 29.72 in 10.0 mi West 19.6 mph 27.6 mph N/A   Overcast
2:35 AM 39.2 °F 29.0 °F 37.4 °F 93% 29.73 in 10.0 mi West 21.9 mph 29.9 mph N/A   Overcast
2:55 AM 39.2 °F 30.2 °F 35.6 °F 87% 29.75 in 10.0 mi WNW 17.3 mph 26.5 mph N/A   Overcast
3:15 AM 39.2 °F 29.6 °F 37.4 °F 93% 29.76 in 10.0 mi WNW 19.6 mph 24.2 mph N/A   Overcast
3:35 AM 37.4 °F 27.8 °F 35.6 °F 93% 29.78 in 10.0 mi West 17.3 mph 23.0 mph N/A   Overcast
3:55 AM 37.4 °F 27.8 °F 35.6 °F 93% 29.79 in 10.0 mi West 17.3 mph 20.7 mph N/A   Overcast
4:15 AM 37.4 °F 27.8 °F 35.6 °F 93% 29.80 in 10.0 mi WNW 17.3 mph 24.2 mph N/A   Overcast
4:35 AM 37.4 °F 28.5 °F 35.6 °F 93% 29.82 in 10.0 mi WNW 15.0 mph 26.5 mph N/A   Overcast
4:55 AM 37.4 °F 27.8 °F 35.6 °F 93% 29.83 in 10.0 mi WNW 17.3 mph 20.7 mph N/A   Overcast
5:15 AM 37.4 °F 28.9 °F 35.6 °F 93% 29.84 in 10.0 mi NW 13.8 mph - N/A   Overcast
5:35 AM 37.4 °F 29.8 °F 35.6 °F 93% 29.85 in 10.0 mi NW 11.5 mph - N/A   Overcast
5:55 AM 37.4 °F 29.3 °F 35.6 °F 93% 29.87 in 10.0 mi WNW 12.7 mph - N/A   Overcast
6:15 AM 37.4 °F 28.5 °F 35.6 °F 93% 29.89 in 10.0 mi WNW 15.0 mph 18.4 mph N/A   Overcast
6:35 AM 37.4 °F 28.5 °F 35.6 °F 93% 29.91 in 10.0 mi NW 15.0 mph 20.7 mph N/A   Overcast
7:15 AM 37.4 °F 30.3 °F 33.8 °F 87% 29.93 in 10.0 mi NW 10.4 mph - N/A   Overcast
7:35 AM 37.4 °F 30.3 °F 33.8 °F 87% 29.95 in 10.0 mi WNW 10.4 mph - N/A   Overcast
7:55 AM 37.4 °F 30.8 °F 33.8 °F 87% 29.96 in 10.0 mi NW 9.2 mph - N/A   Overcast
8:15 AM 37.4 °F 30.3 °F 33.8 °F 87% 29.97 in 10.0 mi NW 10.4 mph - N/A   Overcast
8:35 AM 37.4 °F 29.8 °F 33.8 °F 87% 29.98 in 10.0 mi NNW 11.5 mph - N/A   Overcast
8:55 AM 37.4 °F 29.8 °F 33.8 °F 87% 29.99 in 10.0 mi NW 11.5 mph 16.1 mph N/A   Overcast
9:15 AM 37.4 °F 27.8 °F 33.8 °F 87% 29.99 in 10.0 mi NNW 17.3 mph 20.7 mph N/A   Overcast
9:35 AM 37.4 °F 30.8 °F 33.8 °F 87% 30.00 in 7.0 mi North 9.2 mph - N/A   Overcast
9:55 AM 37.4 °F 29.8 °F 33.8 °F 87% 30.01 in 10.0 mi NNW 11.5 mph - N/A   Overcast
10:15 AM 37.4 °F 30.3 °F 33.8 °F 87% 30.01 in 10.0 mi NNW 10.4 mph - N/A   Overcast
10:35 AM 37.4 °F 31.4 °F 33.8 °F 87% 30.03 in 10.0 mi NW 8.1 mph - N/A   Overcast
10:55 AM 37.4 °F 31.4 °F 33.8 °F 87% 30.05 in 7.0 mi WNW 8.1 mph - N/A   Overcast
11:15 AM 37.4 °F 32.1 °F 33.8 °F 87% 30.07 in 10.0 mi WNW 6.9 mph - N/A   Overcast
11:35 AM 37.4 °F 30.8 °F 33.8 °F 87% 30.07 in 10.0 mi NW 9.2 mph - N/A   Overcast
11:55 AM 37.4 °F 31.4 °F 33.8 °F 87% 30.07 in 10.0 mi NNW 8.1 mph - N/A   Overcast
12:15 PM 37.4 °F 34.9 °F 33.8 °F 87% 30.08 in 10.0 mi NW 3.5 mph - N/A   Overcast
12:35 PM 37.4 °F - 33.8 °F 87% 30.09 in 10.0 mi Calm Calm - N/A   Overcast
12:55 PM 37.4 °F - 33.8 °F 87% 30.10 in 10.0 mi Calm Calm - N/A   Overcast
1:15 PM 37.4 °F - 33.8 °F 87% 30.10 in 10.0 mi Calm Calm - N/A   Overcast
1:35 PM 39.2 °F - 33.8 °F 81% 30.10 in 10.0 mi Calm Calm - N/A   Overcast
1:55 PM 39.2 °F 35.0 °F 33.8 °F 81% 30.10 in 10.0 mi North 5.8 mph - N/A   Overcast
2:15 PM 39.2 °F - 33.8 °F 81% 30.10 in 10.0 mi Calm Calm - N/A   Overcast
2:35 PM 39.2 °F 35.9 °F 33.8 °F 81% 30.11 in 10.0 mi NW 4.6 mph - N/A   Overcast
2:55 PM 39.2 °F - 33.8 °F 81% 30.10 in 10.0 mi Calm Calm - N/A   Overcast
3:15 PM 39.2 °F 34.2 °F 33.8 °F 81% 30.10 in 10.0 mi NNW 6.9 mph - N/A   Overcast
3:35 PM 39.2 °F 34.2 °F 33.8 °F 81% 30.11 in 10.0 mi West 6.9 mph - N/A   Overcast
3:55 PM 39.2 °F 35.0 °F 33.8 °F 81% 30.12 in 10.0 mi NW 5.8 mph - N/A   Overcast
4:15 PM 39.2 °F 35.0 °F 33.8 °F 81% 30.12 in 10.0 mi NNW 5.8 mph - N/A   Overcast
4:35 PM 39.2 °F 35.0 °F 33.8 °F 81% 30.11 in 10.0 mi NNW 5.8 mph - N/A   Overcast
4:55 PM 39.2 °F 35.9 °F 33.8 °F 81% 30.11 in 10.0 mi NNW 4.6 mph - N/A   Overcast
5:15 PM 39.2 °F 37.0 °F 33.8 °F 81% 30.11 in 10.0 mi NNW 3.5 mph - N/A   Overcast
5:35 PM 39.2 °F 35.9 °F 33.8 °F 81% 30.12 in 10.0 mi NNW 4.6 mph - N/A   Overcast
5:55 PM 39.2 °F 37.0 °F 33.8 °F 81% 30.12 in 10.0 mi NW 3.5 mph - N/A   Overcast
6:15 PM 39.2 °F 37.0 °F 33.8 °F 81% 30.13 in 10.0 mi NNW 3.5 mph - N/A   Overcast
6:35 PM 39.2 °F 35.0 °F 33.8 °F 81% 30.13 in 10.0 mi North 5.8 mph - N/A   Overcast
6:55 PM 37.4 °F 33.8 °F 33.8 °F 87% 30.14 in 10.0 mi North 4.6 mph - N/A   Overcast
7:15 PM 37.4 °F 33.8 °F 33.8 °F 87% 30.14 in 10.0 mi North 4.6 mph - N/A   Overcast
7:35 PM 37.4 °F 32.8 °F 33.8 °F 87% 30.15 in 10.0 mi North 5.8 mph - N/A   Overcast
7:55 PM 37.4 °F - 33.8 °F 87% 30.15 in 10.0 mi Calm Calm - N/A   Overcast
8:15 PM 37.4 °F 34.9 °F 33.8 °F 87% 30.15 in 10.0 mi NNE 3.5 mph - N/A   Overcast
8:35 PM 37.4 °F 34.9 °F 33.8 °F 87% 30.14 in 10.0 mi North 3.5 mph - N/A   Overcast
8:55 PM 37.4 °F 34.9 °F 33.8 °F 87% 30.14 in 10.0 mi North 3.5 mph - N/A   Overcast
9:15 PM 37.4 °F - 33.8 °F 87% 30.14 in 10.0 mi Calm Calm - N/A   Overcast
9:35 PM 37.4 °F - 33.8 °F 87% 30.15 in 10.0 mi Calm Calm - N/A   Overcast
9:55 PM 37.4 °F - 33.8 °F 87% 30.15 in 10.0 mi Calm Calm - N/A   Overcast
10:15 PM 37.4 °F - 33.8 °F 87% 30.16 in 10.0 mi Calm Calm - N/A   Overcast
10:35 PM 37.4 °F - 33.8 °F 87% 30.17 in 10.0 mi Calm Calm - N/A   Overcast
10:55 PM 37.4 °F - 33.8 °F 87% 30.17 in 10.0 mi Calm Calm - N/A   Overcast
11:15 PM 37.4 °F - 33.8 °F 87% 30.17 in 10.0 mi Calm Calm - N/A   Overcast
11:35 PM 35.6 °F 32.8 °F 33.8 °F 93% 30.17 in 10.0 mi WNW 3.5 mph - N/A   Overcast
11:55 PM 37.4 °F - 33.8 °F 87% 30.18 in 10.0 mi Calm Calm - N/A   Overcast